Defiance, OH

6:42 AM EST on November 13, 2019 (GMT -0500)
Defiance Memorial

Weather History for KDFI - September, 2019

Change the Weather History Date:

Thursday, September 26, 2019

  Actual Average Record
Temperature  
Mean Temperature 62 °F -  
Max Temperature 73 °F 70 °F 91 °F (1998)
Min Temperature 50 °F 46 °F 32 °F (1940)
Degree Days  
Heating Degree Days 3    
Growing Degree Days 12 (Base 50)    
Moisture  
Dew Point 50 °F    
Average Humidity 60    
Maximum Humidity 86    
Minimum Humidity 33    
Precipitation  
Precipitation 0.00 in - - ()
Sea Level Pressure  
Sea Level Pressure 29.90 in    
Wind  
Wind Speed 6 mph (WNW)    
Max Wind Speed 14 mph    
Max Gust Speed 22 mph    
Visibility 10 miles    
Events      
Averages and records for this station are not official NWS values.
T = Trace of Precipitation, MM = Missing Value Source: NWS Daily Summary

Daily Weather History Graph

Daily Weather History Graph

Search for Another Location

Airport or City:

Astronomy

Sep. 26, 2019 Rise Set
Actual Time 7:29 AM EDT 7:28 PM EDT
Civil Twilight 7:01 AM EDT 7:55 PM EDT
Nautical Twilight 6:29 AM EDT 8:28 PM EDT
Astronomical Twilight 5:56 AM EDT 9:00 PM EDT
Moon 4:31 AM EDT (9/26) 6:43 PM EDT (9/26)
Length of Visible Light 12h 54m
Length of Day
11h 59m
Waning Crescent, 7% of the Moon is Illuminated
Sep 26
Waning Crescent
Sep 28
New
Oct 5
First Quarter
Oct 13
Full
Oct 21
Last Quarter

Hourly Weather History & Observations

Time (EDT) Temp. Dew Point Humidity Pressure Visibility Wind Dir Wind Speed Gust Speed Precip Events Conditions
12:53 AM 69.1 °F 61.0 °F 75% 29.79 in 10.0 mi West 4.6 mph - N/A   Partly Cloudy
1:53 AM 68.0 °F 60.1 °F 76% 29.79 in 10.0 mi Variable 5.8 mph - N/A   Clear
2:53 AM 66.9 °F 59.0 °F 76% 29.78 in 10.0 mi Variable 3.5 mph - N/A   Partly Cloudy
3:53 AM 66.0 °F 57.0 °F 73% 29.79 in 10.0 mi WNW 3.5 mph - N/A   Scattered Clouds
4:53 AM 64.9 °F 55.9 °F 73% 29.81 in 10.0 mi Variable 4.6 mph - N/A   Clear
5:53 AM 63.0 °F 55.0 °F 75% 29.82 in 10.0 mi Variable 3.5 mph - N/A   Scattered Clouds
6:53 AM 63.0 °F 54.0 °F 72% 29.84 in 10.0 mi Variable 3.5 mph - N/A   Scattered Clouds
7:53 AM 62.1 °F 53.1 °F 72% 29.87 in 10.0 mi Variable 3.5 mph - N/A   Clear
8:53 AM 63.0 °F 53.1 °F 70% 29.89 in 10.0 mi West 5.8 mph - N/A   Clear
9:53 AM 66.0 °F 52.0 °F 60% 29.91 in 10.0 mi WNW 12.7 mph - N/A   Clear
10:53 AM 68.0 °F 50.0 °F 52% 29.93 in 10.0 mi WNW 10.4 mph - N/A   Clear
11:53 AM 69.1 °F 46.0 °F 44% 29.94 in 10.0 mi WNW 12.7 mph 19.6 mph N/A   Clear
12:53 PM 70.0 °F 43.0 °F 38% 29.95 in 10.0 mi WNW 13.8 mph 21.9 mph N/A   Partly Cloudy
1:53 PM 71.1 °F 42.1 °F 35% 29.94 in 10.0 mi WNW 10.4 mph 20.7 mph N/A   Clear
2:53 PM 72.0 °F 43.0 °F 35% 29.94 in 10.0 mi WNW 13.8 mph 18.4 mph N/A   Clear
3:53 PM 72.0 °F 42.1 °F 34% 29.93 in 10.0 mi NW 9.2 mph 19.6 mph N/A   Clear
4:53 PM 72.0 °F 41.0 °F 33% 29.94 in 10.0 mi West 9.2 mph - N/A   Clear
5:53 PM 71.1 °F 41.0 °F 34% 29.94 in 10.0 mi WNW 8.1 mph - N/A   Clear
7:53 PM 63.0 °F 45.0 °F 52% 29.97 in 10.0 mi Calm Calm - N/A   Clear
8:53 PM 57.0 °F 46.9 °F 69% 29.98 in 10.0 mi Calm Calm - N/A   Clear
9:53 PM 54.0 °F 46.9 °F 77% 30.00 in 10.0 mi Calm Calm - N/A   Clear
10:53 PM 52.0 °F 46.0 °F 80% 30.01 in 10.0 mi Calm Calm - N/A   Clear
11:53 PM 50.0 °F 46.0 °F 86% 30.00 in 10.0 mi Calm Calm - N/A   Clear